Torna al catalogo

COSMOS 1275 DEB

AttivoPO
NORAD 17629·DEBRIS·🇷🇺 Russia

Lanciato Jun 4, 1981 da Plesetsk Cosmodrome

Loading…

Prossimi Passaggi (prossime 24 ore)

TLE

AggiornatoSource: Space-Track

Epoca: Sep 14, 2026, 02:27 UTC

1 17629U 81053KY  26257.10265565  .00000756  00000-0  79358-3 0  9997
2 17629  82.9868 304.5713 0155717 303.6677  82.8637 13.68783141 50044

Traccia COSMOS 1275 DEB in tempo reale con AllMySat

Download on the App Store